This demonstration page uses our WeatherBlox Daily Observations layout. Learn more.

Left ArrowRight Arrow

38.20091, -84.87328

Hourly Observations for July 4, 2021

Temp ( °F °C ) Dew Point ( °F °C ) Humidity (%) Winds ( mph kmh ) Pressure ( in mb ) Visibility ( mi km ) Precip ( " mm )
12:53 am 00:53 Mostly Cloudy 64 17.8 61 16.1 90 90 Calm 30.00 1016 10 16 0.00 0.00
1:53 am 01:53 Mostly Cloudy 66 18.9 60 15.6 81 81 Calm 29.99 1016 10 16 0.00 0.00
2:53 am 02:53 Mostly Clear 64 17.8 61 16.1 90 90 Calm 29.98 1015 10 16 0.00 0.00
3:53 am 03:53 Cloudy 63 17.2 61 16.1 93 93 Calm 29.97 1015 10 16 0.00 0.00
4:53 am 04:53 Mostly Clear 63 17.2 59 15 87 87 Calm 29.97 1015 10 16 0.00 0.00
5:53 am 05:53 Partly Cloudy 63 17.2 58 14.4 84 84 Calm 29.98 1015 10 16 0.00 0.00
6:53 am 06:53 Mostly Cloudy 63 17.2 58 14.4 84 84 Calm 29.98 1015 10 16 0.00 0.00
7:53 am 07:53 Mostly Cloudy 65 18.3 60 15.6 84 84 SW 3 6 29.99 1016 10 16 0.00 0.00
8:53 am 08:53 Mostly Cloudy 71 21.7 60 15.6 68 68 W 7 11 29.99 1016 10 16 0.00 0.00
9:53 am 09:53 Sunny 75 23.9 62 16.7 64 64 W 8 13 29.99 1016 10 16 0.00 0.00
10:53 am 10:53 Sunny 79 26.1 64 17.8 60 60 NW 7 11 29.97 1015 10 16 0.00 0.00
11:53 am 11:53 Sunny 82 27.8 66 18.9 58 58 VRB 6 9 29.97 1015 10 16 0.00 0.00
12:53 pm 12:53 Mostly Sunny 84 28.9 67 19.4 57 57 VRB 6 9 29.97 1015 10 16 0.00 0.00
1:53 pm 13:53 Cloudy 84 28.9 68 20 59 59 W 8 13 29.97 1015 10 16 0.00 0.00
2:53 pm 14:53 Mostly Cloudy 85 29.4 68 20 57 57 VRB 7 11 29.96 1015 10 16 0.00 0.00
3:53 pm 15:53 Mostly Cloudy 87 30.6 69 20.6 55 55 W 6 9 29.95 1014 10 16 0.00 0.00
4:53 pm 16:53 Mostly Cloudy 87 30.6 68 20 53 53 NW 7 11 29.95 1014 10 16 0.00 0.00
5:53 pm 17:53 Partly Cloudy 87 30.6 68 20 53 53 WNW 7 11 29.96 1014 10 16 0.00 0.00
6:53 pm 18:53 Mostly Sunny 85 29.4 69 20.6 59 59 WNW 5 7 29.96 1014 10 16 0.00 0.00
7:53 pm 19:53 Sunny 84 28.9 69 20.6 61 61 Calm 29.97 1015 10 16 0.00 0.00
8:53 pm 20:53 Sunny 80 26.7 71 21.7 74 74 W 3 6 29.98 1015 10 16 0.00 0.00
9:53 pm 21:53 Clear 78 25.6 70 21.1 76 76 Calm 29.98 1015 10 16 0.00 0.00
10:53 pm 22:53 Clear 75 23.9 70 21.1 84 84 Calm 30.00 1016 8 13 0.00 0.00
11:53 pm 23:53 Clear 74 23.3 70 21.1 88 88 Calm 30.00 1016 10 16 0.00 0.00

Powered by AerisWeather